Terug naar catalogus

COSMOS 2205

GLONASS

ActiefNavigatieMEO
NORAD 22058·PAYLOAD·🇷🇺 Russia

Gelanceerd Jul 30, 1992 vanaf Baikonur Cosmodrome

Loading…

Volgende Passages (komende 24 uur)

TLE

VerouderendSource: Space-Track

Epoch: Aug 29, 2026, 04:29 UTC

1 22058U 92047C   26241.18688050 -.00000001  00000-0  00000+0 0  9991
2 22058  64.0999 299.6394 0020437 222.7579 166.6187  2.13103269265092

Volg COSMOS 2205 in realtime met AllMySat

Download on the App Store